Location: Holbach
(51.5399°N, 10.6036°E)
Time: 10:24:50
(UTC+00:00)

Meteor 2-5 Rocket - Pass Details

Date: 18 September 2020
Orbit: 833 x 912 km, 81.2° (Epoch: 30 October)

Event Time Altitude Azimuth Distance (km) Brightness Sun altitude
Rises 18:36:43 0° 351° (N) 3,411 7.2 -11.9°
Reaches altitude 10° 18:39:22 10° 1° (N) 2,480 6.4 -12.3°
Maximum altitude 18:44:27 34° 66° (ENE) 1,379 4.5 -13.0°
Enters shadow 18:47:51 19° 119° (ESE) 1,955 5.0 -13.5°
